[[{"header":{"parameterUnit":"m.s-1","parameterCategory":1,"la1":30.2992,"la2":30.254,"lo1":-89.0895,"lo2":-89.0443,"dy":0.0025,"dx":0.0025,"nx":19,"ny":19,"refTime":"2026-04-21T21:00:00:Z","depth":0,"parameterNumber":2,"parameterNumberName":"U-component_of_WINDS"},"data":[0,0,0,-4.5672,-4.5675,-4.5792,-4.5792,-4.5948,-4.5949,0,0,0,0,0,0,0,0,0,0,0,-4.5641,-4.5642,-4.5672,-4.5675,-4.5792,-4.5792,-4.5947,-4.5949,0,0,0,0,0,0,0,0,0,0,0,-4.564,-4.5642,-4.5643,-4.5675,-4.5792,-4.5792,-4.5947,-4.5857,0,0,0,0,0,0,0,0,0,0,-4.5742,-4.5716,-4.5641,-4.5643,-4.5676,-4.5792,-4.5792,-4.5852,-4.5862,-4.5897,0,-4.5929,0,-4.5942,-4.596,-4.596,0,0,0,-4.5672,-4.5708,-4.5737,-4.5643,-4.5677,-4.5791,-4.5738,-4.5858,-4.5869,-4.591,-4.5931,-4.5937,-4.5944,-4.5961,-4.5962,-4.6172,-4.6173,0,0,-4.5666,-4.5663,-4.5729,-4.5744,-4.5727,-4.5735,-4.5742,-4.5864,-4.5887,-4.5931,-4.594,-4.5947,-4.5962,-4.5963,-4.6171,-4.6172,0,0,0,-4.5649,-4.5659,-4.5685,-4.5738,-4.5759,-4.5738,-4.5747,-4.5881,-4.589,-4.5942,-4.5948,-4.5963,-4.5965,-4.617,-4.6171,-4.6223,0,0,0,-4.5645,-4.5649,-4.5682,-4.5682,-4.5757,-4.5821,-4.576,-4.5881,-4.5895,-4.5948,-4.5963,-4.5966,-4.6168,-4.6171,-4.6219,-4.6246,0,0,0,-4.5632,-4.5648,-4.5666,-4.5681,-4.5732,-4.5819,-4.5835,-4.5884,-4.59,-4.596,-4.5967,-4.6168,-4.617,-4.6215,-4.624,-4.63,0,0,0,-4.5617,-4.5709,-4.5667,-4.5773,-4.5731,-4.5851,-4.5834,-4.5924,-4.5983,-4.5964,-4.6169,-4.6171,-4.6214,-4.6237,-4.6296,-4.6348,-4.637,0,0,-4.5732,-4.5723,-4.5786,-4.5751,-4.5879,-4.5834,-4.5969,-4.6025,-4.6033,-4.6125,-4.613,-4.622,-4.624,-4.6299,-4.6498,-4.6516,0,0,0,-4.5822,-4.5866,-4.5901,-4.5957,-4.6003,-4.6044,-4.608,-4.6101,-4.618,-4.608,-4.6259,-4.6271,-4.6306,-4.633,-4.6345,-4.6374,-4.6183,-4.6183,-4.6183,-4.5978,-4.5985,-4.6089,-4.6111,-4.6166,-4.6203,-4.6248,-4.6283,-4.6273,-4.6315,-4.6341,-4.6462,-4.6491,-4.6502,-4.6532,-4.6372,-4.6372,-4.6372,-4.6372,-4.6145,-4.6209,-4.6196,-4.6292,-4.6299,-4.638,-4.6421,-4.6412,-4.6488,-4.6442,-4.6473,-4.6419,-4.6521,-4.6547,-4.6376,-4.6376,-4.6375,-4.6375,-4.6374,-4.6246,-4.6277,-4.6303,-4.6386,-4.645,-4.647,-4.6544,-4.6548,-4.6553,-4.6584,-4.6611,-4.6611,-4.6608,-4.6598,-4.6598,-4.6598,-4.6599,-4.6599,-4.6599,-4.6339,-4.6366,-4.6428,-4.6487,-4.6525,-4.6575,-4.6616,-4.6653,-4.6695,-4.6692,-4.6692,-4.6677,-4.6531,-4.6492,-4.6606,-4.6605,-4.6604,-4.6603,-4.6603,-4.65,-4.6465,-4.6561,-4.6599,-4.6669,-4.6732,-4.6739,-4.6814,-4.6846,-4.6882,-4.6863,-4.6754,-4.6745,-4.6733,-4.6701,-4.6862,-4.6862,-4.6862,-4.6862,-4.6583,-4.658,-4.6679,-4.674,-4.68,-4.6816,-4.6924,-4.6959,-4.6988,-4.7008,-4.6986,-4.6945,-4.6933,-4.6931,-4.6915,-4.6885,-4.7089,-4.7089,-4.7089,-4.6682,-4.6686,-4.6776,-4.6805,-4.6862,-4.691,-4.7012,-4.7081,-4.7108,-4.7099,-4.7023,-4.7014,-4.6948,-4.6926,-4.6911,-4.6886,-4.6831,0,0]},{"header":{"parameterUnit":"m.s-1","parameterCategory":1,"la1":30.2992,"la2":30.254,"lo1":-89.0895,"lo2":-89.0443,"dy":0.0025,"dx":0.0025,"nx":19,"ny":19,"refTime":"2026-04-21T21:00:00:Z","depth":0,"parameterNumber":3,"parameterNumberName":"V-component_of_WINDS"},"data":[0,0,0,4.3292,4.3294,4.3357,4.3357,4.345,4.3451,0,0,0,0,0,0,0,0,0,0,0,4.3282,4.3283,4.3292,4.3294,4.3357,4.3357,4.345,4.3451,0,0,0,0,0,0,0,0,0,0,0,4.3282,4.3283,4.3284,4.3294,4.3357,4.3357,4.345,4.3398,0,0,0,0,0,0,0,0,0,0,4.3334,4.3333,4.3283,4.3284,4.3295,4.3357,4.3357,4.3395,4.3401,4.3428,0,4.3454,0,4.3455,4.3458,4.3459,0,0,0,4.3287,4.3328,4.3338,4.3284,4.3296,4.3357,4.3327,4.3398,4.3405,4.3436,4.3455,4.3459,4.3456,4.3459,4.3459,4.3641,4.3642,0,0,4.3284,4.3297,4.3333,4.3343,4.3335,4.3325,4.3329,4.3402,4.3424,4.3456,4.346,4.3458,4.346,4.346,4.364,4.3641,0,0,0,4.3279,4.3295,4.3303,4.3339,4.335,4.3327,4.3331,4.342,4.3422,4.3461,4.3459,4.346,4.3462,4.3638,4.364,4.3712,0,0,0,4.3276,4.3292,4.3302,4.3311,4.3349,4.3386,4.3348,4.3417,4.3425,4.3458,4.346,4.3463,4.3637,4.3639,4.3707,4.3743,0,0,0,4.3275,4.3292,4.3304,4.3311,4.3339,4.3384,4.339,4.3418,4.3424,4.3459,4.3463,4.3636,4.3639,4.3703,4.3736,4.3796,0,0,0,4.3277,4.3364,4.3305,4.3402,4.3339,4.3429,4.3389,4.3456,4.3494,4.3461,4.3637,4.364,4.3702,4.3731,4.3791,4.3848,4.3873,0,0,4.3395,4.3379,4.3435,4.3384,4.3489,4.3419,4.3534,4.3555,4.3545,4.3609,4.3614,4.3709,4.3735,4.3795,4.4011,4.4031,0,0,0,4.3477,4.3517,4.3542,4.3581,4.3602,4.3623,4.3626,4.3635,4.3689,4.3581,4.3746,4.3762,4.3796,4.3822,4.384,4.3869,4.3653,4.3653,4.3653,4.3659,4.3645,4.3738,4.3732,4.3771,4.3776,4.3806,4.3818,4.3789,4.3829,4.3848,4.3981,4.4012,4.4025,4.4056,4.3877,4.3877,4.3878,4.3878,4.383,4.3885,4.385,4.3927,4.3912,4.3976,4.3986,4.3965,4.4022,4.3965,4.3994,4.3932,4.4048,4.4074,4.3883,4.3882,4.3882,4.3881,4.3881,4.3947,4.3971,4.3983,4.4041,4.4088,4.4079,4.4138,4.4121,4.4106,4.4135,4.4154,4.4153,4.4149,4.4146,4.4146,4.4147,4.4147,4.4147,4.4148,4.4063,4.4074,4.4126,4.416,4.4185,4.4216,4.4226,4.425,4.4272,4.4255,4.4255,4.4224,4.4062,4.4022,4.4155,4.4153,4.4153,4.4152,4.4151,4.4239,4.4198,4.4278,4.4304,4.4344,4.4393,4.4374,4.4425,4.4442,4.4472,4.4437,4.432,4.4301,4.4288,4.4254,4.4439,4.4439,4.4439,4.4439,4.4337,4.4328,4.4409,4.4452,4.4493,4.4485,4.4577,4.4587,4.459,4.4601,4.4572,4.4527,4.4513,4.4503,4.4484,4.4453,4.4684,4.4684,4.4684,4.4445,4.444,4.4522,4.4527,4.4559,4.4586,4.4674,4.4724,4.4719,4.4694,4.4609,4.4598,4.4525,4.4501,4.4471,4.4443,4.4385,0,0]}]]